Snowfall_Accumulation
0.0 0.0 0.0 0.0 0.0 0.0 0.0 0.0 0.0 0.0 0.0 0.0 0.0 0.0 0.0 0.0 0.0 0.0 0.0 0.0 0.0 0.0 0.0 0.0 0.0 0.0 0.0 0.0 0.0 0.0 0.0 0.0 0.0 0.0 0.0 0.0 0.0 0.0 0.0 0.0 0.0 0.0 0.0
0.0 0.0 0.0 0.0 0.0 0.0 0.0 0.0 0.0 0.0 0.0 0.0 0.0 0.0 0.0 0.0 0.0 0.0 0.0 0.0 0.0 0.0 0.0 0.0 0.0 0.0 0.0 0.0 0.0 0.0 0.0 0.0 0.0 0.0 0.0 0.0 0.0 0.0 0.0 0.0 0.0 0.0 0.0
0.0 0.0 0.0 0.0 0.0 0.0 0.0 0.0 0.0 0.0 0.0 0.0 0.0 0.0 0.0 0.0 0.0 0.0 0.0 0.0 0.0 0.0 0.0 0.0 0.0 0.0 0.0 0.0 0.0 0.0 0.0 0.0 0.0 0.0 0.0 0.0 0.0 0.0 0.0 0.0 0.0 0.0 0.0
0.0 0.0 0.0 0.0 0.0 0.0 0.0 0.0 0.0 0.0 0.0 0.0 0.0 0.0 0.0 0.0 0.0 0.0 0.0 0.0 0.0 0.0 0.0 0.0 0.0 0.0 0.0 0.0 0.0 0.0 0.0 0.0 0.0 0.0 0.0 0.0 0.0 0.0 0.0 0.0 0.0 0.0 0.0
0.0 0.0 0.0 0.0 0.0 0.0 0.0 0.0 0.0 0.0 0.0 0.0 0.0 0.0 0.0 0.0 0.0 0.0 0.0 0.0 0.0 0.0 0.0 0.0 0.0 0.0 0.0 0.0 0.0 0.0 0.0 0.0 0.0 0.0 0.0 0.0 0.0 0.0 0.0 0.0 0.0 0.0 0.0
0.0 0.0 0.0 0.0 0.0 0.0 0.0 0.0 0.0 0.0 0.0 0.0 0.0 0.0 0.0 0.0 0.0 0.0 0.0 0.0 0.0 0.0 0.0 0.0 0.0 0.0 0.0 0.0 0.0 0.0 0.0 0.0 0.0 0.0 0.0 0.0 0.0 0.0 0.0 0.0 0.0 0.3 0.5
0.0 0.0 0.0 0.0 0.0 0.0 0.0 0.0 0.0 0.0 0.0 0.0 0.0 0.0 0.0 0.0 0.0 0.0 0.0 0.0 0.0 0.0 0.0 0.0 0.0 0.0 0.0 0.0 0.0 0.0 0.0 0.0 0.0 0.0 0.0 0.0 0.0 0.0 0.0 0.3 0.0 0.5 0.6
0.0 0.0 0.0 0.0 0.0 0.0 0.0 0.0 0.0 0.0 0.0 0.0 0.0 0.0 0.0 0.0 0.0 0.0 0.0 0.0 0.0 0.0 0.0 0.0 0.0 0.0 0.0 0.0 0.0 0.0 0.0 0.0 0.0 0.0 0.0 0.0 0.0 0.0 0.0 0.0 1.3 0.8 0.2
0.0 0.0 0.0 0.0 0.0 0.0 0.0 0.0 0.0 0.0 0.0 0.0 0.0 0.0 0.0 0.0 0.0 0.0 0.0 0.0 0.0 0.0 0.0 0.0 0.0 0.0 0.0 0.0 0.0 0.0 0.0 0.0 0.0 0.0 0.0 0.4 0.1 0.0 0.0 1.1 0.9 0.7 0.5
0.0 0.0 0.0 0.0 0.0 0.0 0.0 0.0 0.0 0.0 0.0 0.0 0.0 0.0 0.0 0.0 0.0 0.0 0.0 0.0 0.0 0.0 0.0 0.0 0.0 0.0 0.0 0.0 0.2 0.0 0.0 0.0 0.9 0.8 1.8 1.4 1.1 0.9 0.7 0.6 0.4 1.7 1.2
0.0 0.0 0.0 0.0 0.0 0.0 0.0 0.0 0.0 0.0 0.0 0.0 0.0 0.0 0.0 0.0 0.0 0.0 0.0 0.0 0.0 0.0 0.0 0.0 0.0 0.0 0.0 0.3 0.1 0.0 0.7 0.7 0.4 0.2 1.2 1.2 1.1 0.8 0.7 0.5 0.4 1.0 1.3
0.0 0.0 0.0 0.0 0.0 0.0 0.0 0.0 0.0 0.0 0.0 0.0 0.0 0.0 0.0 0.0 0.0 0.0 0.0 0.0 0.0 0.0 0.0 0.0 0.0 0.6 0.1 0.0 1.1 0.9 0.8 1.7 1.6 1.6 1.4 1.0 0.7 0.4 0.2 0.2 0.1 0.0 0.0
0.0 0.0 0.0 0.0 0.0 0.0 0.0 0.0 0.0 0.0 0.0 0.0 0.0 0.0 0.0 0.0 0.0 0.0 0.3 0.1 0.0 0.0 0.6 0.6 0.4 1.8 1.2 1.0 0.9 0.6 1.0 1.0 0.9 1.0 0.8 0.6 0.2 0.1 0.0 0.0 0.0 0.0 0.4
0.0 0.0 0.0 0.0 0.0 0.0 0.0 0.0 0.0 0.0 0.0 0.0 0.0 0.0 0.0 0.0 0.0 0.1 0.0 1.1 1.0 0.8 0.5 0.2 2.0 1.6 1.8 1.8 1.8 1.5 1.1 0.8 0.6 0.7 0.4 0.4 0.4 0.2 0.1 0.0 1.1 0.3 0.7
0.0 0.0 0.0 0.0 0.0 0.0 0.0 0.0 0.0 0.0 0.0 0.0 0.0 0.0 0.0 0.0 2.8 1.3 1.0 0.8 0.5 1.4 2.0 1.9 1.8 1.8 1.9 1.6 1.2 0.8 0.6 0.5 0.5 0.4 0.5 0.4 0.2 0.8 1.1 1.2 2.0 1.3 0.4
0.0 0.0 0.0 0.0 0.0 0.0 0.0 0.0 0.0 0.0 0.0 0.0 0.0 0.3 1.7 5.8 6.3 5.1 4.3 3.6 3.1 2.8 2.7 2.8 2.7 2.2 1.7 1.3 1.0 0.8 0.6 0.5 0.3 0.2 0.1 0.0 0.8 1.3 1.2 0.5 0.3 0.5 0.1
0.0 0.0 0.0 0.0 0.0 1.6 0.0 0.0 2.5 2.9 3.9 5.1 5.7 8.1 7.1 7.0 6.3 5.7 4.9 4.2 3.5 2.7 2.2 2.0 1.8 1.6 1.2 0.8 0.6 0.3 0.3 0.2 0.0 0.0 0.1 0.1 0.5 0.4 0.2 0.2 0.3 0.4 0.1
0.0 0.0 0.0 3.0 6.2 5.7 3.6 4.1 5.2 5.2 8.4 9.0 7.8 6.2 5.2 4.5 3.8 3.2 2.6 2.0 1.9 1.5 1.3 1.1 0.9 0.6 0.2 0.1 0.1 0.0 0.0 0.0 0.1 0.1 0.1 0.1 0.4 0.5 0.3 0.2 0.3 0.4 0.3
0.1 0.3 7.2 8.3 8.9 8.3 7.7 7.1 6.6 6.1 5.3 5.3 5.0 4.7 4.3 3.6 3.2 3.0 2.4 1.9 1.6 1.2 0.8 0.6 0.5 0.3 0.2 0.1 0.2 0.2 0.2 0.2 0.1 0.2 0.2 0.3 0.2 0.4 0.3 0.3 0.5 0.5 0.6
4.0 5.9 5.5 6.1 6.9 6.7 6.5 6.0 5.6 4.9 4.5 4.3 4.0 3.9 3.5 2.6 2.4 2.1 1.8 1.4 1.1 1.1 0.9 0.7 0.6 0.5 0.4 0.4 0.4 0.4 0.3 0.1 0.1 0.0 0.0 0.1 0.1 0.5 1.0 0.9 1.0 1.1 0.9
6.8 7.3 6.9 6.3 6.3 6.0 5.3 4.6 3.9 3.4 3.0 2.8 3.1 3.0 2.1 1.4 1.4 1.2 1.0 0.8 0.7 0.6 0.6 0.6 0.5 0.4 0.3 0.3 0.2 0.1 0.1 0.0 0.0 0.1 0.0 0.1 0.0 0.3 0.4 0.5 0.6 0.6 0.4
5.9 5.7 5.1 4.7 4.4 3.9 3.5 3.0 2.7 2.4 2.3 2.0 1.9 1.5 0.9 0.7 0.6 0.6 0.6 0.6 0.6 0.4 0.3 0.2 0.2 0.1 0.0 0.0 0.0 0.0 0.0 0.0 0.0 0.0 0.0 0.0 0.0 0.1 0.2 0.2 0.1 0.3 0.9
3.6 3.1 2.6 2.5 2.3 1.9 1.9 1.7 1.6 1.4 1.3 1.1 0.9 0.6 0.5 0.5 0.5 0.5 0.5 0.4 0.2 0.1 0.0 0.0 0.0 0.0 0.0 0.0 0.0 0.1 0.0 0.0 0.0 0.1 0.3 0.3 0.2 0.2 0.4 0.5 0.4 0.8 1.0
1.6 1.5 1.3 1.3 1.1 0.8 0.5 0.5 0.4 0.4 0.4 0.5 0.3 0.3 0.2 0.2 0.2 0.1 0.0 0.0 0.0 0.0 0.0 0.0 0.0 0.0 0.0 0.0 0.0 0.0 0.0 0.0 0.2 0.4 0.5 0.5 0.2 0.1 0.4 0.5 0.4 0.7 1.1
0.5 0.4 0.3 0.3 0.3 0.3 0.3 0.3 0.2 0.2 0.0 0.0 0.0 0.1 0.0 0.0 0.0 0.1 0.0 0.0 0.0 0.0 0.0 0.0 0.0 0.0 0.0 0.0 0.0 0.0 0.0 0.1 0.1 0.1 0.4 0.4 0.4 0.1 0.4 0.5 0.4 0.8 0.9
0.3 0.2 0.2 0.1 0.0 0.0 0.0 0.0 0.0 0.0 0.0 0.0 0.0 0.0 0.0 0.0 0.0 0.0 0.0 0.0 0.0 0.0 0.0 0.0 0.0 0.0 0.0 0.0 0.0 0.0 0.0 0.0 0.1 0.1 0.7 0.6 0.4 0.2 0.3 0.6 0.4 0.8 0.7